{"data":{"norad_id":67529,"intl_designator":"2026-013H","name":"HULIANWANG DIGUI-153","alt_names":[],"object_type":"PAYLOAD","status":"ACTIVE","operator":null,"country":"PRC","launch_date":"2026-01-19","launch_site_code":"WSC","launch_vehicle":null,"mission":null,"orbit_class":"UNKNOWN","rcs_meters":null,"size_class":null,"mass_kg":null,"dimensions":null,"purposes":[],"wikipedia_slug":null,"has_3d_model":false,"image_url":null,"decayed_at":null,"tle_current":{"epoch":"2026-05-25T04:05:57.798240Z","epoch_age_seconds":54241,"freshness":"FRESH","line1":"1 67529U 26013H   26145.17080785 -.00000085  00000+0  84891-4 0  9992","line2":"2 67529  50.0044  77.8799 0000913  27.6843 332.4078 13.29327912 16984","mean_motion":13.29327912,"eccentricity":9.13e-5,"inclination_deg":50.0044,"raan_deg":77.8799,"arg_perigee_deg":27.6843,"mean_anomaly_deg":332.4078,"bstar":8.4891e-5,"rev_number":1698,"period_min":108.32541670125,"perigee_km":1148.6120989938,"apogee_km":1149.986608872,"semimajor_km":7527.4363539329,"source":"CELESTRAK","updated_at":"2026-05-25T13:38:07.051295Z"}}}